User: anonymous   Login
Location: Fort Wayne
(41.1310°N, 85.1290°W)
Time: 11:20:03
(UTC-04:00)
Language:

COSMOS 2428 - Orbit

View from above orbital plane
View from above orbital plane
View from above satellite
View from above satellite

Ground track
Ground track

The orbit data is extracted from the following two-line orbital elements,

1 31792U 07029A   16209.52633923 -.00000320  00000-0 -14742-3 0  9999
2 31792  70.9342  13.6236 0008696  32.5130 327.6524 14.12345076468238
Epoch (UTC): 27 July 2016 12:37:55
Eccentricity: 0.0008696
inclination: 70.9342°
perigee height: 845 km
apogee height: 857 km
right ascension of ascending node: 13.6236°
argument of perigee: 32.5130°
revolutions per day: 14.12345076
mean anomaly at epoch: 327.6524°
orbit number at epoch: 46823

The dashed part of the orbit path shows where the satellite is in the earth's shadow,  

DLR